Date,TemperatureHighF,TemperatureAvgF,TemperatureLowF,DewpointHighF,DewpointAvgF,DewpointLowF,HumidityHigh,HumidityAvg,HumidityLow,PressureMaxIn,PressureMinIn,WindSpeedMaxMPH,WindSpeedAvgMPH,GustSpeedMaxMPH,PrecipitationSumIn
2013-2-1,40.7,34.2,27.1,29.0,16.4,7.0,73,50,34,30.38,29.99,9,2,12,0.00
2013-2-2,43.3,31.5,20.5,35.0,21.8,11.0,95,71,29,30.41,30.09,4,1,11,0.05
2013-2-3,52.7,38.7,29.0,36.0,29.3,24.0,96,73,36,30.08,29.90,8,2,19,0.01
2013-2-4,52.4,40.0,30.5,31.0,24.9,21.0,76,56,34,30.16,30.03,5,1,12,0.00
2013-2-5,64.4,45.9,32.3,43.0,33.7,28.0,84,65,36,30.02,29.91,6,1,11,0.00
2013-2-6,66.3,48.9,34.0,36.0,32.1,28.0,93,57,26,30.20,30.01,5,1,9,0.00
2013-2-7,49.6,44.5,40.6,43.0,35.9,26.0,96,74,45,30.23,30.00,3,0,5,0.62
2013-2-8,56.7,46.9,38.1,49.0,39.1,28.0,97,77,41,30.15,29.91,11,2,19,0.00
2013-2-9,62.0,44.6,34.7,31.0,25.2,17.0,78,51,20,30.34,30.14,13,2,16,0.00
2013-2-10,55.2,44.5,34.1,45.0,34.0,25.0,96,70,38,30.44,30.19,4,0,7,0.43
2013-2-11,56.8,51.4,45.7,55.0,50.4,45.0,98,96,92,30.19,29.98,3,0,6,0.20
2013-2-12,59.1,49.8,43.4,48.0,33.8,26.0,97,58,30,30.11,29.90,12,2,14,0.11
2013-2-13,50.2,44.1,39.1,46.0,40.9,33.0,96,89,64,29.91,29.68,5,1,11,0.06
2013-2-14,54.1,41.9,32.4,37.0,32.5,29.0,93,71,48,30.08,29.91,6,1,11,0.00
2013-2-15,62.8,43.7,28.6,40.0,32.8,28.0,97,71,34,30.12,29.95,8,1,15,0.01
2013-2-16,41.3,36.2,28.3,32.0,23.5,13.0,91,61,42,30.06,29.84,11,3,14,0.03
2013-2-17,45.6,32.0,23.2,18.0,10.1,6.0,74,43,20,30.30,30.06,6,1,11,0.00
2013-2-18,57.0,36.6,22.1,27.0,21.8,15.0,87,59,30,30.41,30.23,2,0,8,0.00
2013-2-19,54.9,41.5,30.6,45.0,32.5,20.0,94,73,36,30.23,29.91,4,1,10,0.25
2013-2-20,54.1,41.8,29.3,25.0,15.5,11.0,85,36,23,30.15,30.06,8,2,12,0.00
2013-2-21,59.9,42.9,26.4,40.0,21.5,12.0,93,48,21,30.26,30.09,3,0,5,0.22
2013-2-22,41.3,39.2,37.3,40.0,37.7,36.0,97,94,87,30.27,30.13,2,0,8,0.43
2013-2-23,45.9,41.3,37.8,44.0,40.2,37.0,97,96,92,30.14,29.86,2,0,2,0.45
2013-2-24,65.7,49.6,34.9,43.0,36.1,27.0,98,65,32,30.02,29.87,6,2,11,0.00
2013-2-25,49.8,42.3,35.0,32.0,28.7,25.0,86,60,43,30.16,29.99,5,1,11,0.00
2013-2-26,41.7,38.9,34.3,41.0,37.7,32.0,97,95,86,30.04,29.62,6,1,12,1.50
2013-2-27,58.1,45.0,30.9,42.0,36.6,30.0,97,75,49,29.84,29.68,4,1,11,0.00
2013-2-28,52.0,42.4,35.4,35.0,27.8,24.0,76,57,39,29.93,29.74,5,2,13,0.00